| time (UTC) | temp C | wind direction | speed KPH | gust KPH | rain 1hr cm | rain 24hr cm | rain mn cm | humidity % | barometer mb |
| 20260506204534 | 25 | 0 | 1.6 | 14.5 | 0.00 | 0.00 | 0.00 | 71 | 1014.0 |
| 20260506204509 | 25 | 9 | 1.6 | 14.5 | 0.00 | 0.00 | 0.00 | 72 | 1013.2 |
| 20260506203034 | 25 | 9 | 1.6 | 11.3 | 0.00 | 0.00 | 0.00 | 71 | 1014.1 |
| 20260506203007 | 25 | 9 | 1.6 | 9.7 | 0.00 | 0.00 | 0.00 | 71 | 1013.2 |
| 20260506201530 | 25 | 0 | 1.6 | 19.3 | 0.00 | 0.00 | 0.00 | 70 | 1014.3 |
| 20260506201507 | 25 | 9 | 0.0 | 12.9 | 0.00 | 0.00 | 0.00 | 71 | 1013.4 |
| 20260506200044 | 25 | 9 | 3.2 | 17.7 | 0.00 | 0.00 | 0.00 | 70 | 1014.3 |
| 20260506200010 | 25 | 9 | 3.2 | 17.7 | 0.00 | 0.00 | 0.00 | 70 | 1013.5 |
| 20260506194530 | 25 | 0 | 3.2 | 14.5 | 0.00 | 0.00 | 0.00 | 69 | 1014.2 |
| 20260506194504 | 25 | 9 | 3.2 | 14.5 | 0.00 | 0.00 | 0.00 | 70 | 1013.4 |
| 20260506193031 | 25 | 9 | 1.6 | 17.7 | 0.00 | 0.00 | 0.00 | 70 | 1014.5 |
| 20260506193002 | 25 | 9 | 0.0 | 17.7 | 0.00 | 0.00 | 0.00 | 70 | 1013.7 |
| 20260506191529 | 25 | 9 | 0.0 | 8.0 | 0.00 | 0.00 | 0.00 | 69 | 1014.6 |
| 20260506191501 | 25 | 9 | 0.0 | 8.0 | 0.00 | 0.00 | 0.00 | 70 | 1013.9 |
| 20260506190036 | 25 | 9 | 1.6 | 20.9 | 0.00 | 0.00 | 0.00 | 69 | 1014.8 |
| 20260506190002 | 25 | 9 | 1.6 | 16.1 | 0.00 | 0.00 | 0.00 | 70 | 1014.1 |
| 20260506184619 | 25 | 9 | 1.6 | 8.0 | 0.00 | 0.00 | 0.00 | 69 | 1014.3 |
| 20260506184529 | 25 | 9 | 0.0 | 11.3 | 0.00 | 0.00 | 0.00 | 68 | 1015.1 |
| 20260506183100 | 25 | 9 | 4.8 | 17.7 | 0.00 | 0.00 | 0.00 | 68 | 1014.4 |
| 20260506183029 | 25 | 9 | 4.8 | 17.7 | 0.00 | 0.00 | 0.00 | 67 | 1015.2 |
| 20260506181559 | 26 | 9 | 3.2 | 16.1 | 0.00 | 0.00 | 0.00 | 65 | 1014.4 |
| 20260506181530 | 26 | 9 | 1.6 | 16.1 | 0.00 | 0.00 | 0.00 | 65 | 1015.2 |
| 20260506180059 | 26 | 9 | 1.6 | 9.7 | 0.00 | 0.00 | 0.00 | 65 | 1014.6 |
| 20260506180031 | 26 | 9 | 1.6 | 8.0 | 0.00 | 0.00 | 0.00 | 64 | 1015.4 |
| 20260506174557 | 26 | 9 | 3.2 | 16.1 | 0.00 | 0.00 | 0.00 | 65 | 1014.9 |
| 20260506174530 | 26 | 9 | 3.2 | 16.1 | 0.00 | 0.00 | 0.00 | 64 | 1015.7 |
| 20260506173108 | 25 | 9 | 1.6 | 12.9 | 0.00 | 0.00 | 0.00 | 65 | 1015.2 |
| 20260506173042 | 25 | 9 | 1.6 | 12.9 | 0.00 | 0.00 | 0.00 | 66 | 1016.0 |
| 20260506171603 | 25 | 9 | 0.0 | 12.9 | 0.00 | 0.00 | 0.00 | 68 | 1015.5 |
| 20260506171529 | 25 | 9 | 1.6 | 12.9 | 0.00 | 0.00 | 0.00 | 67 | 1016.3 |
| 20260506170029 | 25 | 0 | 1.6 | 8.0 | 0.00 | 0.00 | 0.00 | 68 | 1016.3 |
| 20260506164612 | 25 | 9 | 0.0 | 4.8 | 0.00 | 0.00 | 0.00 | 68 | 1015.6 |
| 20260506164528 | 25 | 0 | 0.0 | 4.8 | 0.00 | 0.00 | 0.00 | 67 | 1016.4 |
| 20260506163102 | 25 | 9 | 0.0 | 8.0 | 0.00 | 0.00 | 0.00 | 67 | 1015.7 |
| 20260506163045 | 25 | 9 | 1.6 | 8.0 | 0.00 | 0.00 | 0.00 | 66 | 1016.5 |
| 20260506161554 | 25 | 9 | 3.2 | 12.9 | 0.00 | 0.00 | 0.00 | 65 | 1015.8 |
| 20260506161530 | 25 | 9 | 1.6 | 12.9 | 0.00 | 0.00 | 0.00 | 65 | 1016.6 |
| 20260506160106 | 25 | 9 | 0.0 | 9.7 | 0.00 | 0.00 | 0.00 | 65 | 1015.7 |
| 20260506160031 | 25 | 0 | 0.0 | 11.3 | 0.00 | 0.00 | 0.00 | 65 | 1016.5 |
| 20260506154554 | 25 | 9 | 0.0 | 6.4 | 0.00 | 0.00 | 0.00 | 65 | 1015.9 |
| 20260506154537 | 25 | 0 | 0.0 | 6.4 | 0.00 | 0.00 | 0.00 | 64 | 1016.7 |
| 20260506153051 | 25 | 9 | 3.2 | 9.7 | 0.00 | 0.00 | 0.00 | 62 | 1016.0 |
| 20260506153032 | 25 | 9 | 3.2 | 11.3 | 0.00 | 0.00 | 0.00 | 61 | 1016.8 |
| 20260506151550 | 26 | 5 | 0.0 | 8.0 | 0.00 | 0.00 | 0.00 | 64 | 1016.1 |
| 20260506151537 | 26 | 0 | 0.0 | 8.0 | 0.00 | 0.00 | 0.00 | 64 | 1016.9 |
| 20260506150048 | 25 | 9 | 0.0 | 3.2 | 0.00 | 0.00 | 0.00 | 64 | 1016.1 |
| 20260506150032 | 25 | 0 | 0.0 | 3.2 | 0.00 | 0.00 | 0.00 | 64 | 1017.1 |
| 20260506144547 | 25 | 9 | 0.0 | 6.4 | 0.00 | 0.00 | 0.00 | 63 | 1015.8 |
| 20260506144530 | 25 | 0 | 0.0 | 6.4 | 0.00 | 0.00 | 0.00 | 63 | 1016.7 |
| 20260506143045 | 25 | 9 | 1.6 | 9.7 | 0.00 | 0.00 | 0.00 | 65 | 1015.5 |
| 20260506143028 | 25 | 9 | 0.0 | 11.3 | 0.00 | 0.00 | 0.00 | 65 | 1016.4 |
| 20260506141602 | 24 | 9 | 0.0 | 6.4 | 0.00 | 0.00 | 0.00 | 67 | 1015.6 |
| 20260506141530 | 24 | 0 | 0.0 | 6.4 | 0.00 | 0.00 | 0.00 | 67 | 1016.4 |
| 20260506140040 | 23 | 9 | 0.0 | 8.0 | 0.00 | 0.00 | 0.00 | 69 | 1015.6 |
| 20260506140034 | 23 | 0 | 0.0 | 12.9 | 0.00 | 0.00 | 0.00 | 69 | 1016.3 |
| 20260506134534 | 22 | 9 | 0.0 | 6.4 | 0.00 | 0.00 | 0.00 | 72 | 1015.3 |
| 20260506133033 | 22 | 0 | 0.0 | 8.0 | 0.00 | 0.00 | 0.00 | 76 | 1016.0 |
| 20260506131536 | 22 | 9 | 0.0 | 0.0 | 0.00 | 0.00 | 0.00 | 80 | 1015.1 |
| 20260506130030 | 22 | 9 | 0.0 | 8.0 | 0.00 | 0.00 | 0.00 | 82 | 1016.0 |
| 20260506124529 | 21 | 9 | 0.0 | 4.8 | 0.00 | 0.00 | 0.00 | 83 | 1015.2 |
| 20260506123037 | 21 | 9 | 0.0 | 8.0 | 0.00 | 0.00 | 0.00 | 84 | 1014.9 |
| 20260506123030 | 21 | 9 | 0.0 | 8.0 | 0.00 | 0.00 | 0.00 | 84 | 1015.8 |
| 20260506121529 | 21 | 0 | 0.0 | 8.0 | 0.00 | 0.00 | 0.00 | 84 | 1015.7 |
| 20260506121527 | 21 | 9 | 0.0 | 8.0 | 0.00 | 0.00 | 0.00 | 84 | 1014.8 |
| 20260506120035 | 21 | 9 | 0.0 | 3.2 | 0.00 | 0.00 | 0.00 | 84 | 1014.7 |
| 20260506120029 | 21 | 0 | 0.0 | 3.2 | 0.00 | 0.00 | 0.00 | 84 | 1015.5 |
| 20260506114527 | 20 | 0 | 0.0 | 4.8 | 0.00 | 0.00 | 0.00 | 84 | 1015.5 |
| 20260506113032 | 20 | 0 | 0.0 | 0.0 | 0.00 | 0.00 | 0.00 | 83 | 1015.3 |
| 20260506113020 | 20 | 9 | 0.0 | 0.0 | 0.00 | 0.00 | 0.00 | 83 | 1014.4 |
| 20260506111531 | 20 | 0 | 0.0 | 0.0 | 0.00 | 0.00 | 0.00 | 83 | 1015.3 |
| 20260506111520 | 20 | 9 | 0.0 | 0.0 | 0.00 | 0.00 | 0.00 | 83 | 1014.4 |
| 20260506110029 | 20 | 0 | 0.0 | 0.0 | 0.00 | 0.00 | 0.00 | 82 | 1015.2 |
| 20260506110024 | 20 | 9 | 0.0 | 0.0 | 0.00 | 0.00 | 0.00 | 82 | 1014.4 |
| 20260506104528 | 20 | 0 | 0.0 | 1.6 | 0.00 | 0.00 | 0.00 | 81 | 1015.2 |
| 20260506104517 | 20 | 9 | 0.0 | 1.6 | 0.00 | 0.00 | 0.00 | 82 | 1014.4 |
| 20260506103028 | 20 | 0 | 0.0 | 0.0 | 0.00 | 0.00 | 0.00 | 81 | 1015.1 |
| 20260506103025 | 20 | 9 | 0.0 | 0.0 | 0.00 | 0.00 | 0.00 | 82 | 1014.3 |
| 20260506101532 | 20 | 0 | 0.0 | 1.6 | 0.00 | 0.00 | 0.00 | 81 | 1014.9 |
| 20260506101516 | 20 | 9 | 0.0 | 1.6 | 0.00 | 0.00 | 0.00 | 81 | 1014.1 |
| 20260506100034 | 20 | 0 | 0.0 | 0.0 | 0.00 | 0.00 | 0.00 | 81 | 1015.0 |
| 20260506100015 | 20 | 9 | 0.0 | 0.0 | 0.00 | 0.00 | 0.00 | 81 | 1014.3 |
| 20260506094530 | 20 | 0 | 0.0 | 1.6 | 0.00 | 0.00 | 0.00 | 81 | 1014.8 |
| 20260506094527 | 20 | 9 | 0.0 | 1.6 | 0.00 | 0.00 | 0.00 | 81 | 1014.1 |
| 20260506093030 | 20 | 0 | 0.0 | 1.6 | 0.00 | 0.00 | 0.00 | 79 | 1014.9 |
| 20260506093023 | 20 | 9 | 0.0 | 1.6 | 0.00 | 0.00 | 0.00 | 80 | 1014.1 |
| 20260506091530 | 20 | 0 | 0.0 | 1.6 | 0.00 | 0.00 | 0.00 | 78 | 1015.0 |
| 20260506091512 | 20 | 9 | 0.0 | 1.6 | 0.00 | 0.00 | 0.00 | 79 | 1014.2 |
| 20260506090027 | 20 | 0 | 0.0 | 1.6 | 0.00 | 0.00 | 0.00 | 77 | 1015.0 |
| 20260506090013 | 20 | 9 | 0.0 | 1.6 | 0.00 | 0.00 | 0.00 | 78 | 1014.1 |
| 20260506084536 | 20 | 0 | 0.0 | 3.2 | 0.00 | 0.00 | 0.00 | 77 | 1014.6 |
| 20260506084510 | 20 | 9 | 0.0 | 1.6 | 0.00 | 0.00 | 0.00 | 77 | 1013.9 |
| 20260506083032 | 20 | 0 | 0.0 | 4.8 | 0.00 | 0.00 | 0.00 | 76 | 1014.8 |
| 20260506083011 | 20 | 9 | 0.0 | 4.8 | 0.00 | 0.00 | 0.00 | 77 | 1014.1 |
| 20260506081528 | 20 | 0 | 0.0 | 1.6 | 0.00 | 0.00 | 0.00 | 75 | 1014.9 |
| 20260506081510 | 20 | 9 | 0.0 | 1.6 | 0.00 | 0.00 | 0.00 | 76 | 1014.1 |
| 20260506073029 | 20 | 0 | 0.0 | 4.8 | 0.00 | 0.00 | 0.00 | 74 | 1014.8 |
| 20260506073007 | 20 | 9 | 0.0 | 4.8 | 0.00 | 0.00 | 0.00 | 74 | 1014.1 |
| 20260506071530 | 20 | 9 | 0.0 | 3.2 | 0.00 | 0.00 | 0.00 | 74 | 1014.9 |
| 20260506071507 | 20 | 9 | 0.0 | 3.2 | 0.00 | 0.00 | 0.00 | 74 | 1014.1 |
| 20260506061531 | 20 | 0 | 0.0 | 6.4 | 0.00 | 0.00 | 0.00 | 72 | 1015.3 |
| 20260506061501 | 20 | 9 | 0.0 | 6.4 | 0.00 | 0.00 | 0.00 | 72 | 1014.6 |
| 20260506044553 | 20 | 5 | 1.6 | 6.4 | 0.00 | 0.00 | 0.00 | 66 | 1014.8 |
| 20260506044532 | 20 | 9 | 0.0 | 6.4 | 0.00 | 0.00 | 0.00 | 65 | 1015.6 |
| 20260506043044 | 20 | 5 | 0.0 | 4.8 | 0.00 | 0.00 | 0.00 | 65 | 1014.8 |
| 20260506043028 | 20 | 0 | 0.0 | 4.8 | 0.00 | 0.00 | 0.00 | 65 | 1015.6 |
| 20260506041549 | 20 | 9 | 0.0 | 3.2 | 0.00 | 0.00 | 0.00 | 64 | 1015.8 |
| 20260506040043 | 20 | 5 | 0.0 | 8.0 | 0.00 | 0.00 | 0.00 | 64 | 1015.2 |
| 20260506040033 | 20 | 0 | 0.0 | 8.0 | 0.00 | 0.00 | 0.00 | 64 | 1016.0 |
| 20260506034543 | 20 | 0 | 0.0 | 8.0 | 0.00 | 0.00 | 0.00 | 63 | 1016.0 |
| 20260506034536 | 20 | 9 | 0.0 | 6.4 | 0.00 | 0.00 | 0.00 | 64 | 1015.2 |
| 20260506033034 | 20 | 9 | 1.6 | 8.0 | 0.00 | 0.00 | 0.00 | 63 | 1015.2 |
| 20260506033029 | 20 | 0 | 0.0 | 8.0 | 0.00 | 0.00 | 0.00 | 63 | 1016.0 |
| 20260506031544 | 20 | 5 | 0.0 | 4.8 | 0.00 | 0.00 | 0.00 | 63 | 1015.2 |
| 20260506031529 | 20 | 0 | 0.0 | 6.4 | 0.00 | 0.00 | 0.00 | 63 | 1015.9 |
| 20260506030038 | 20 | 9 | 0.0 | 8.0 | 0.00 | 0.00 | 0.00 | 62 | 1015.2 |
| 20260506030028 | 20 | 0 | 0.0 | 8.0 | 0.00 | 0.00 | 0.00 | 61 | 1016.0 |
| 20260506024536 | 20 | 5 | 0.0 | 6.4 | 0.00 | 0.00 | 0.00 | 62 | 1015.0 |
| 20260506024529 | 20 | 5 | 0.0 | 4.8 | 0.00 | 0.00 | 0.00 | 61 | 1015.8 |
| 20260506023036 | 20 | 9 | 0.0 | 8.0 | 0.00 | 0.00 | 0.00 | 62 | 1015.0 |
| 20260506023030 | 20 | 5 | 0.0 | 8.0 | 0.00 | 0.00 | 0.00 | 62 | 1015.7 |
| 20260506021532 | 20 | 5 | 0.0 | 8.0 | 0.00 | 0.00 | 0.00 | 63 | 1014.9 |
| 20260506021529 | 20 | 0 | 0.0 | 8.0 | 0.00 | 0.00 | 0.00 | 63 | 1015.7 |
| 20260506020031 | 20 | 9 | 0.0 | 4.8 | 0.00 | 0.00 | 0.00 | 63 | 1014.9 |
| 20260506020028 | 20 | 0 | 0.0 | 4.8 | 0.00 | 0.00 | 0.00 | 62 | 1015.7 |
| 20260506014532 | 20 | 9 | 0.0 | 3.2 | 0.00 | 0.00 | 0.00 | 63 | 1014.9 |
| 20260506014528 | 20 | 0 | 0.0 | 3.2 | 0.00 | 0.00 | 0.00 | 62 | 1015.7 |
| 20260506013041 | 20 | 0 | 0.0 | 4.8 | 0.00 | 0.00 | 0.00 | 61 | 1015.8 |
| 20260506013031 | 20 | 5 | 0.0 | 4.8 | 0.00 | 0.00 | 0.00 | 62 | 1014.9 |
| 20260506011531 | 20 | 9 | 0.0 | 6.4 | 0.00 | 0.00 | 0.00 | 60 | 1015.9 |
| 20260506010032 | 20 | 5 | 0.0 | 3.2 | 0.00 | 0.00 | 0.00 | 60 | 1014.8 |
| 20260506004541 | 20 | 9 | 0.0 | 6.4 | 0.00 | 0.00 | 0.00 | 60 | 1014.6 |
| 20260506004527 | 20 | 0 | 0.0 | 6.4 | 0.00 | 0.00 | 0.00 | 59 | 1015.4 |
| 20260506003030 | 20 | 0 | 0.0 | 4.8 | 0.00 | 0.00 | 0.00 | 60 | 1015.2 |
| 20260506001530 | 21 | 0 | 0.0 | 4.8 | 0.00 | 0.00 | 0.00 | 60 | 1015.2 |
| 20260506001528 | 21 | 5 | 0.0 | 4.8 | 0.00 | 0.00 | 0.00 | 61 | 1014.4 |
| 20260506000029 | 21 | 5 | 0.0 | 4.8 | 0.00 | 0.00 | 0.00 | 58 | 1015.4 |
| 20260505234600 | 21 | 5 | 0.0 | 8.0 | 0.00 | 0.00 | 0.00 | 57 | 1014.5 |
| 20260505234529 | 21 | 0 | 0.0 | 8.0 | 0.00 | 0.00 | 0.00 | 57 | 1015.3 |
| 20260505233030 | 21 | 5 | 0.0 | 4.8 | 0.00 | 0.00 | 0.00 | 56 | 1015.4 |
| 20260505233028 | 21 | 9 | 0.0 | 4.8 | 0.00 | 0.00 | 0.00 | 57 | 1014.6 |
| 20260505231531 | 22 | 5 | 1.6 | 8.0 | 0.00 | 0.00 | 0.00 | 56 | 1015.6 |
| 20260505231526 | 22 | 9 | 3.2 | 8.0 | 0.00 | 0.00 | 0.00 | 56 | 1014.6 |
| 20260505230041 | 22 | 0 | 0.0 | 11.3 | 0.00 | 0.00 | 0.00 | 54 | 1015.4 |
| 20260505230026 | 22 | 5 | 0.0 | 8.0 | 0.00 | 0.00 | 0.00 | 55 | 1014.5 |
| 20260505224530 | 22 | 5 | 1.6 | 9.7 | 0.00 | 0.00 | 0.00 | 54 | 1015.4 |
| 20260505223037 | 22 | 5 | 0.0 | 4.8 | 0.00 | 0.00 | 0.00 | 55 | 1015.4 |
| 20260505223025 | 22 | 9 | 1.6 | 6.4 | 0.00 | 0.00 | 0.00 | 56 | 1014.5 |
| 20260505221528 | 22 | 0 | 0.0 | 12.9 | 0.00 | 0.00 | 0.00 | 54 | 1015.4 |
| 20260505221524 | 22 | 9 | 0.0 | 12.9 | 0.00 | 0.00 | 0.00 | 55 | 1014.6 |
| 20260505220047 | 23 | 9 | 1.6 | 8.0 | 0.00 | 0.00 | 0.00 | 52 | 1015.5 |
| 20260505220024 | 22 | 9 | 1.6 | 8.0 | 0.00 | 0.00 | 0.00 | 52 | 1014.6 |
| 20260505214535 | 22 | 0 | 0.0 | 8.0 | 0.00 | 0.00 | 0.00 | 50 | 1015.7 |
| 20260505214525 | 22 | 9 | 0.0 | 8.0 | 0.00 | 0.00 | 0.00 | 50 | 1014.8 |
| 20260505213033 | 23 | 9 | 0.0 | 8.0 | 0.00 | 0.00 | 0.00 | 48 | 1015.8 |
| 20260505213024 | 23 | 5 | 1.6 | 8.0 | 0.00 | 0.00 | 0.00 | 49 | 1014.8 |
| 20260505211531 | 23 | 0 | 0.0 | 12.9 | 0.00 | 0.00 | 0.00 | 47 | 1015.7 |
| 20260505211522 | 23 | 5 | 1.6 | 6.4 | 0.00 | 0.00 | 0.00 | 47 | 1014.7 |
| 20260505210030 | 23 | 9 | 0.0 | 8.0 | 0.00 | 0.00 | 0.00 | 46 | 1015.8 |
| 20260505210023 | 23 | 5 | 1.6 | 8.0 | 0.00 | 0.00 | 0.00 | 47 | 1014.9 |